This is the latest recevied weather packets stored in our database for station/object DL8GAK-13. If no packets are shown the sender has not sent any weather packets the latest 10 day(s).
| Time | Temp. | Humidity | Pressure | Rain* | Wind** | Luminosity | Snow |
|---|---|---|---|---|---|---|---|
| 1777854849 | 15° C | 55% | 1022.9 hPa | - | - | - | - |
| 1777853647 | 15° C | 55% | 1023.1 hPa | - | - | - | - |
| 1777853047 | 15.56° C | 55% | 1023 hPa | - | - | - | - |
| 1777851846 | 15.56° C | 55% | 1023 hPa | - | - | - | - |
| 1777851245 | 15.56° C | 54% | 1023.1 hPa | - | - | - | - |
| 1777850645 | 16.11° C | 54% | 1023.2 hPa | - | - | - | - |
| 1777850044 | 16.11° C | 53% | 1023.2 hPa | - | - | - | - |
| 1777849444 | 16.11° C | 53% | 1023.1 hPa | - | - | - | - |
| 1777848843 | 16.67° C | 52% | 1023 hPa | - | - | - | - |
| 1777848243 | 16.67° C | 52% | 1023.1 hPa | - | - | - | - |
| 1777847642 | 16.67° C | 52% | 1023.2 hPa | - | - | - | - |
| 1777847042 | 16.67° C | 51% | 1023.1 hPa | - | - | - | - |
| 1777846441 | 16.67° C | 50% | 1023 hPa | - | - | - | - |
| 1777845240 | 17.22° C | 49% | 1022.7 hPa | - | - | - | - |
| 1777844640 | 17.22° C | 49% | 1022.8 hPa | - | - | - | - |
| 1777843440 | 17.78° C | 48% | 1022.6 hPa | - | - | - | - |
| 1777842839 | 17.78° C | 48% | 1022.7 hPa | - | - | - | - |
| 1777841638 | 18.33° C | 47% | 1022.5 hPa | - | - | - | - |
| 1777841038 | 18.33° C | 47% | 1022.4 hPa | - | - | - | - |
| 1777840438 | 18.33° C | 47% | 1022.2 hPa | - | - | - | - |
| 1777839837 | 18.89° C | 46% | 1022 hPa | - | - | - | - |
| 1777838636 | 18.89° C | 48% | 1021.8 hPa | - | - | - | - |
| 1777838036 | 18.89° C | 48% | 1021.7 hPa | - | - | - | - |
| 1777837435 | 19.44° C | 49% | 1021.5 hPa | - | - | - | - |
| 1777836834 | 19.44° C | 50% | 1021.5 hPa | - | - | - | - |
* Rain since midnight (hover to see other rain measurements)
** Current wind speed in m/s (hover to see current wind gust speed)